EW8824 Weather Reports


time (UTC)temp
C
wind
direction
speed
KPH
gust
KPH
rain 1hr
cm
rain 24hr
cm
rain mn
cm
humidity
%
barometer
mb
20260504041824 14 173 9.7 17.7 0.00 0.00 0.00 60 1012.0
20260504041757 14 184 9.7 22.5 0.00 0.00 0.00 60 1011.9
20260504041342 14 172 6.4 17.7 0.00 0.00 0.00 61 1012.0
20260504040220 14 196 9.7 17.7 0.00 0.00 0.00 60 1012.2
20260504040033 14 214 6.4 20.9 0.00 0.00 0.00 60 1012.3
20260504035206 14 215 11.3 20.9 0.00 0.00 0.00 60 1012.4
20260504035041 14 184 8.0 22.5 0.00 0.00 0.00 60 1012.4
20260504034531 14 160 8.0 22.5 0.00 0.00 0.00 60 1012.3
20260504033701 14 198 3.2 9.7 0.00 0.00 0.00 61 1012.3
20260504033200 14 169 4.8 14.5 0.00 0.00 0.00 62 1012.4
20260504032700 14 180 6.4 14.5 0.00 0.00 0.00 61 1012.6
20260504032202 14 184 3.2 12.9 0.00 0.00 0.00 61 1012.7
20260504031701 14 146 8.0 27.4 0.00 0.00 0.00 60 1012.6
20260504031532 14 212 4.8 27.4 0.00 0.00 0.00 62 1012.7
20260504030701 14 137 11.3 20.9 0.00 0.00 0.00 61 1012.5
20260504030201 13 160 8.0 12.9 0.00 0.00 0.00 63 1012.5
20260504025701 13 165 4.8 14.5 0.00 0.00 0.00 63 1012.5
20260504025203 14 155 6.4 16.1 0.00 0.00 0.00 63 1012.5
20260504025035 14 229 9.7 16.1 0.00 0.00 0.00 64 1012.6
20260504024203 13 171 6.4 12.9 0.00 0.00 0.00 63 1012.8
20260504023914 13 166 4.8 12.9 0.00 0.00 0.00 63 1012.7
20260504023820 13 146 4.8 12.9 0.00 0.00 0.00 63 1012.8
20260504022702 13 156 6.4 14.5 0.00 0.00 0.00 62 1012.8
20260504022204 13 160 4.8 14.5 0.00 0.00 0.00 63 1012.9
20260504021702 13 171 6.4 14.5 0.00 0.00 0.00 63 1012.8
20260504021203 13 172 3.2 11.3 0.00 0.00 0.00 64 1012.9
20260504020911 13 167 3.2 8.0 0.00 0.00 0.00 65 1012.9
20260504020819 13 164 8.0 11.3 0.00 0.00 0.00 63 1012.8
20260504015904 13 167 3.2 6.4 0.00 0.00 0.00 66 1013.0
20260504015818 13 167 3.2 8.0 0.00 0.00 0.00 66 1012.9
20260504014703 13 167 1.6 8.0 0.00 0.00 0.00 65 1013.0
20260504014202 13 167 3.2 8.0 0.00 0.00 0.00 66 1013.0
20260504013700 12 148 3.2 8.0 0.00 0.00 0.00 66 1013.0
20260504013200 12 169 0.0 6.4 0.00 0.00 0.00 65 1013.0
20260504012700 12 169 1.6 6.4 0.00 0.00 0.00 64 1012.9
20260504012201 13 175 0.0 4.8 0.00 0.00 0.00 63 1012.9
20260504011704 13 175 0.0 4.8 0.00 0.00 0.00 63 1012.9
20260504011203 13 186 0.0 3.2 0.00 0.00 0.00 61 1012.8
20260504010702 13 186 0.0 3.2 0.00 0.00 0.00 61 1012.9
20260504010201 14 199 0.0 3.2 0.00 0.00 0.00 59 1013.1
20260504010034 14 199 0.0 3.2 0.00 0.00 0.00 58 1013.0
20260504005205 15 199 0.0 3.2 0.00 0.00 0.00 58 1013.0
20260504004703 15 199 0.0 1.6 0.00 0.00 0.00 57 1013.2
20260504004202 15 199 0.0 3.2 0.00 0.00 0.00 55 1013.2
20260504003856 15 205 4.8 8.0 0.00 0.00 0.00 54 1013.2
20260504003815 15 199 0.0 8.0 0.00 0.00 0.00 56 1013.2
20260504003041 15 204 3.2 9.7 0.00 0.00 0.00 52 1013.3
20260504002202 16 217 3.2 9.7 0.00 0.00 0.00 53 1013.2
20260504001704 16 197 6.4 9.7 0.00 0.00 0.00 51 1013.1
20260504001204 16 213 4.8 9.7 0.00 0.00 0.00 51 1013.1
20260504000701 16 225 3.2 14.5 0.00 0.00 0.00 51 1012.8
20260504000538 16 211 6.4 14.5 0.00 0.00 0.00 50 1012.7
20260503235703 16 223 3.2 17.7 0.00 0.00 0.00 50 1012.7
20260503235201 16 187 8.0 24.1 0.00 0.00 0.00 50 1012.7
20260503234702 17 180 12.9 24.1 0.00 0.00 0.00 48 1012.6
20260503234201 17 186 12.9 24.1 0.00 0.00 0.00 49 1012.4
20260503233701 17 228 11.3 22.5 0.00 0.00 0.00 48 1012.5
20260503233200 17 169 8.0 19.3 0.00 0.00 0.00 47 1012.6
20260503232701 17 155 6.4 24.1 0.00 0.00 0.00 49 1012.6
20260503232201 17 171 14.5 25.7 0.00 0.00 0.00 47 1012.4
20260503231705 17 217 12.9 25.7 0.00 0.00 0.00 46 1012.5
20260503231205 17 248 8.0 27.4 0.00 0.00 0.00 48 1012.7
20260503230702 17 183 12.9 27.4 0.00 0.00 0.00 47 1012.7
20260503230204 17 167 12.9 27.4 0.00 0.00 0.00 47 1012.8
20260503225920 18 214 9.7 25.7 0.00 0.00 0.00 47 1012.8
20260503225821 17 206 14.5 27.4 0.00 0.00 0.00 47 1012.8
20260503224703 18 238 11.3 29.0 0.00 0.00 0.00 46 1013.0
20260503224205 18 194 12.9 29.0 0.00 0.00 0.00 47 1013.1
20260503223701 18 156 8.0 27.4 0.00 0.00 0.00 48 1013.2
20260503223538 18 202 12.9 27.4 0.00 0.00 0.00 46 1013.2
20260503222705 18 219 12.9 33.8 0.00 0.00 0.00 46 1013.3
20260503222202 18 167 14.5 33.8 0.00 0.00 0.00 46 1013.4
20260503221702 18 208 11.3 22.5 0.00 0.00 0.00 46 1013.5
20260503221203 18 182 9.7 27.4 0.00 0.00 0.00 47 1013.6
20260503220704 18 182 11.3 27.4 0.00 0.00 0.00 45 1013.6
20260503220206 18 184 11.3 27.4 0.00 0.00 0.00 46 1013.6
20260503220037 18 189 14.5 24.1 0.00 0.00 0.00 46 1013.7
20260503215205 18 257 12.9 24.1 0.00 0.00 0.00 45 1013.9
20260503214703 18 167 9.7 25.7 0.00 0.00 0.00 45 1014.0
20260503214533 18 186 11.3 27.4 0.00 0.00 0.00 46 1014.1
20260503213704 18 161 11.3 29.0 0.00 0.00 0.00 45 1014.2
20260503213203 18 243 16.1 30.6 0.00 0.00 0.00 44 1014.3
20260503212702 18 140 11.3 30.6 0.00 0.00 0.00 45 1014.3
20260503212204 18 198 11.3 25.7 0.00 0.00 0.00 42 1014.5
20260503211703 18 197 9.7 17.7 0.00 0.00 0.00 47 1014.7
20260503211202 18 231 8.0 24.1 0.00 0.00 0.00 46 1014.8
20260503210705 18 187 12.9 25.7 0.00 0.00 0.00 47 1014.9
20260503210203 18 185 16.1 25.7 0.00 0.00 0.00 45 1015.2
20260503205701 18 181 11.3 32.2 0.00 0.00 0.00 46 1015.2
20260503205203 18 183 12.9 33.8 0.00 0.00 0.00 46 1015.4
20260503205034 18 220 20.9 33.8 0.00 0.00 0.00 45 1015.6
20260503204203 18 172 14.5 35.4 0.00 0.00 0.00 46 1015.4
20260503204036 18 202 17.7 35.4 0.00 0.00 0.00 46 1015.7
20260503203526 18 257 17.7 32.2 0.00 0.00 0.00 45 1015.6
20260503203521 18 172 14.5 32.2 0.00 0.00 0.00 45 1015.2
20260503203401 18 199 17.7 29.0 0.00 0.00 0.00 45 1015.4
20260503202735 18 198 11.3 29.0 0.00 0.00 0.00 44 1015.3
20260503201202 18 158 8.0 35.4 0.00 0.00 0.00 44 1015.9
20260503201037 18 265 11.3 35.4 0.00 0.00 0.00 46 1015.9
20260503200203 18 168 8.0 27.4 0.00 0.00 0.00 46 1015.9
20260503195702 17 148 16.1 33.8 0.00 0.00 0.00 45 1015.9
20260503195205 17 154 20.9 33.8 0.00 0.00 0.00 45 1015.9
20260503195039 17 173 12.9 27.4 0.00 0.00 0.00 46 1016.1
20260503194204 17 176 16.1 27.4 0.00 0.00 0.00 44 1016.2
20260503193702 17 204 14.5 27.4 0.00 0.00 0.00 47 1016.4
20260503193206 17 224 11.3 38.6 0.00 0.00 0.00 46 1016.7
20260503192702 17 219 20.9 38.6 0.00 0.00 0.00 45 1016.7
20260503192202 17 227 12.9 37.0 0.00 0.00 0.00 47 1016.9
20260503191703 17 245 12.9 27.4 0.00 0.00 0.00 47 1016.9
20260503191204 17 211 14.5 27.4 0.00 0.00 0.00 46 1017.3
20260503191040 17 163 11.3 24.1 0.00 0.00 0.00 49 1017.1
20260503190203 17 215 12.9 33.8 0.00 0.00 0.00 44 1017.3
20260503190046 17 182 9.7 33.8 0.00 0.00 0.00 53 1017.6
20260503185202 17 236 11.3 19.3 0.00 0.00 0.00 45 1017.5
20260503185040 17 224 11.3 22.5 0.00 0.00 0.00 45 1017.6
20260503184546 17 200 12.9 24.1 0.00 0.00 0.00 47 1017.8
20260503183703 17 208 14.5 24.1 0.00 0.00 0.00 46 1017.9
20260503183204 17 163 9.7 24.1 0.00 0.00 0.00 45 1018.0
20260503182704 17 166 12.9 30.6 0.00 0.00 0.00 49 1018.1
20260503182203 17 249 12.9 30.6 0.00 0.00 0.00 45 1018.3
20260503182044 17 167 11.3 22.5 0.00 0.00 0.00 51 1018.3
20260503181202 17 231 11.3 20.9 0.00 0.00 0.00 50 1018.3
20260503180701 17 152 12.9 29.0 0.00 0.00 0.00 46 1018.3
20260503180200 16 144 9.7 29.0 0.00 0.00 0.00 47 1018.6
20260503180046 16 169 11.3 29.0 0.00 0.00 0.00 46 1018.4
20260503175203 16 115 19.3 29.0 0.00 0.00 0.00 45 1018.6
20260503174702 16 226 11.3 25.7 0.00 0.00 0.00 49 1018.6
20260503174201 16 169 16.1 25.7 0.00 0.00 0.00 49 1018.8
20260503173701 16 224 9.7 22.5 0.00 0.00 0.00 46 1019.0
20260503173201 16 187 12.9 24.1 0.00 0.00 0.00 47 1018.9
20260503172702 16 213 9.7 24.1 0.00 0.00 0.00 51 1018.9
20260503172201 16 139 11.3 22.5 0.00 0.00 0.00 45 1018.9
20260503172042 16 217 14.5 27.4 0.00 0.00 0.00 47 1019.0
20260503171543 16 201 9.7 27.4 0.00 0.00 0.00 47 1019.1
20260503170703 16 201 16.1 27.4 0.00 0.00 0.00 49 1019.0
20260503170202 16 203 14.5 27.4 0.00 0.00 0.00 47 1019.1
20260503160204 15 176 12.9 19.3 0.00 0.00 0.00 46 1019.8
20260503150701 14 237 11.3 22.5 0.00 0.00 0.00 54 1020.3
20260503150201 13 160 9.7 16.1 0.00 0.00 0.00 52 1020.4
20260503140201 12 210 8.0 14.5 0.00 0.00 0.00 59 1020.3
20260503131203 8 163 1.6 8.0 0.00 0.00 0.00 81 1020.4
20260503130701 7 246 4.8 8.0 0.00 0.00 0.00 84 1020.4
20260503130203 7 157 3.2 8.0 0.00 0.00 0.00 92 1020.2
20260503120203 0 344 0.0 0.0 0.00 0.03 0.00 94 1020.1
20260503110202 -1 344 0.0 0.0 0.00 0.03 0.00 92 1019.4
20260503100202 0 344 0.0 0.0 0.00 0.03 0.00 91 1019.1
20260503090308 0 344 0.0 0.0 0.00 0.03 0.00 91 1019.3
20260503081204 0 344 0.0 0.0 0.00 0.03 0.00 91 1019.4
20260503080704 0 344 0.0 0.0 0.00 0.03 0.00 90 1019.4
20260503080201 0 344 0.0 0.0 0.00 0.03 0.00 90 1019.3
20260503072704 0 344 0.0 0.0 0.00 0.03 0.00 91 1019.2
20260503072204 0 344 0.0 0.0 0.00 0.03 0.00 90 1019.1
20260503071858 0 344 0.0 0.0 0.00 0.03 0.00 91 1019.1
20260503071815 0 344 0.0 0.0 0.00 0.03 0.00 90 1019.1
20260503070704 0 344 0.0 0.0 0.00 0.03 0.00 91 1019.1
20260503070201 0 344 0.0 0.0 0.00 0.03 0.00 90 1019.2
20260503060131 1 344 0.0 0.0 0.00 0.03 0.00 89 1019.6
20260503055017 1 344 0.0 0.0 0.00 0.03 0.00 90 1019.5
20260503054129 1 344 0.0 0.0 0.00 0.03 0.00 89 1019.5
20260503053630 1 344 0.0 0.0 0.00 0.03 0.00 89 1019.6
20260503053545 1 344 0.0 0.0 0.00 0.03 0.00 89 1019.6
20260503053537 1 344 0.0 0.0 0.00 0.03 0.00 89 1019.5
20260503053532 1 344 0.0 0.0 0.00 0.03 0.00 89 1019.6
20260503051630 1 344 0.0 0.0 0.00 0.03 0.00 89 1019.5
20260503051133 1 344 0.0 0.0 0.00 0.03 0.00 89 1019.6
20260503050631 1 344 0.0 0.0 0.00 0.03 0.00 89 1019.5
20260503050131 1 344 0.0 0.0 0.00 0.03 0.00 88 1019.7
20260503045629 1 344 0.0 0.0 0.00 0.03 0.00 88 1019.6
20260503045449 1 344 0.0 0.0 0.00 0.03 0.00 88 1019.5
20260503044629 1 344 0.0 0.0 0.00 0.03 0.00 88 1019.6
20260503044129 1 344 0.0 0.0 0.00 0.03 0.00 88 1019.4
20260503043630 1 344 0.0 0.0 0.00 0.03 0.00 88 1019.4
20260503043456 1 344 0.0 0.0 0.00 0.03 0.00 87 1019.4
20260503042630 2 344 0.0 0.0 0.00 0.03 0.00 87 1019.3
20260503042129 2 344 0.0 0.0 0.00 0.03 0.00 87 1019.3